Albany, GA

1:46 PM EDT on April 19, 2018 (GMT -0400)
Southwest Georgia Regional

Weather History for KABY - November, 2012

Change the Weather History Date:

Tuesday, November 27, 2012

  Actual Average Record
Temperature  
Mean Temperature 50 °F 55 °F  
Max Temperature 54 °F 67 °F 83 °F (1973)
Min Temperature 46 °F 43 °F 22 °F (1950)
Degree Days  
Heating Degree Days 15 10  
Month to date heating degree days 248 186  
Since 1 July heating degree days 299 236  
Cooling Degree Days 0 0  
Month to date cooling degree days 9 31  
Year to date cooling degree days 2803 2534  
Moisture  
Dew Point 49 °F    
Average Humidity 77    
Maximum Humidity 100    
Minimum Humidity 54    
Precipitation  
Precipitation 0.52 in 0.14 in 0.77 in (2004)
Month to date precipitation 0.54 2.70  
Year to date precipitation 27.43 44.33  
Sea Level Pressure  
Sea Level Pressure 30.19 in    
Wind  
Wind Speed 2 mph (NNE)    
Max Wind Speed 21 mph    
Max Gust Speed -    
Visibility 6 miles    
Events Fog , Rain    
T = Trace of Precipitation, MM = Missing Value Source: NWS Daily Summary

Daily Weather History Graph

Daily Weather History Graph

Search for Another Location

Airport or City:

Astronomy

Nov. 27, 2012 Rise Set
Actual Time 7:15 AM EST 5:33 PM EST
Civil Twilight 6:49 AM EST 5:59 PM EST
Nautical Twilight 6:19 AM EST 6:29 PM EST
Astronomical Twilight 5:49 AM EST 6:59 PM EST
Moon 5:03 PM EST (11/27) 6:21 AM EST (11/27)
Length of Visible Light 11h 10m
Length of Day
10h 18m
Waxing Gibbous, 99% of the Moon is Illuminated
Nov 27
Waxing Gibbous
Nov 28
Full
Dec 6
Last Quarter
Dec 13
New
Dec 20
First Quarter

Hourly Weather History & Observations

Time (EST) Temp. Dew Point Humidity Pressure Visibility Wind Dir Wind Speed Gust Speed Precip Events Conditions
12:53 AM 48.0 °F 37.9 °F 68% 30.20 in 10.0 mi Calm Calm - N/A   Clear
1:53 AM 46.9 °F 37.0 °F 68% 30.19 in 10.0 mi Calm Calm - N/A   Clear
2:53 AM 48.9 °F 37.9 °F 66% 30.19 in 10.0 mi Calm Calm - N/A   Mostly Cloudy
3:53 AM 50.0 °F 39.0 °F 66% 30.19 in 10.0 mi Calm Calm - N/A   Overcast
4:53 AM 51.1 °F 37.0 °F 59% 30.17 in 10.0 mi Calm Calm - N/A   Overcast
5:53 AM 53.1 °F 37.9 °F 57% 30.17 in 10.0 mi Calm Calm - N/A   Overcast
7:53 AM 52.0 °F 41.0 °F 66% 30.19 in 10.0 mi Calm Calm - N/A   Overcast
8:53 AM 50.0 °F 48.0 °F 93% 30.23 in 4.0 mi Calm Calm - 0.01 in Rain Light Rain
9:53 AM 50.0 °F 48.0 °F 93% 30.23 in 3.0 mi Calm Calm - 0.04 in Rain Rain
10:53 AM 50.0 °F 48.0 °F 93% 30.24 in 3.0 mi South 4.6 mph - 0.06 in Rain Rain
11:53 AM 50.0 °F 48.0 °F 93% 30.19 in 9.0 mi East 5.8 mph - 0.04 in Rain Light Rain
12:28 PM 51.8 °F 48.2 °F 88% 30.18 in 9.0 mi Variable 3.5 mph - 0.00 in Rain Light Rain
12:53 PM 52.0 °F 48.9 °F 89% 30.18 in 8.0 mi Calm Calm - 0.00 in Rain Light Rain
1:50 PM 51.8 °F 51.8 °F 100% 30.16 in 4.0 mi NNE 3.5 mph - 0.01 in Rain Light Rain
2:01 PM 51.8 °F 50.0 °F 94% 30.17 in 3.0 mi North 3.5 mph - 0.01 in Rain Rain
2:02 PM 51.8 °F 50.0 °F 94% 30.17 in 3.0 mi North 3.5 mph - 0.01 in Rain Rain
2:58 PM 51.8 °F 51.8 °F 100% 30.18 in 1.8 mi North 4.6 mph - 0.01 in Rain Rain
3:45 PM 51.8 °F 51.8 °F 100% 30.18 in 1.5 mi Variable 3.5 mph - 0.16 in Rain Heavy Rain
3:53 PM 51.1 °F 51.1 °F 100% 30.17 in 2.0 mi NNE 4.6 mph - 0.17 in Rain Rain
4:00 PM 51.8 °F 51.8 °F 100% 30.17 in 2.5 mi NNE 3.5 mph - 0.00 in Rain Rain
4:07 PM 51.8 °F 51.8 °F 100% 30.17 in 3.0 mi NE 3.5 mph - N/A Rain Light Rain
4:14 PM 51.8 °F 51.8 °F 100% 30.17 in 2.0 mi NE 3.5 mph - N/A Rain Light Rain
4:29 PM 51.8 °F 51.8 °F 100% 30.17 in 3.0 mi ENE 4.6 mph - N/A Rain Light Rain
4:53 PM 52.0 °F 51.1 °F 97% 30.17 in 3.0 mi SE 4.6 mph - N/A Rain Light Rain
5:53 PM 52.0 °F 51.1 °F 97% 30.15 in 4.0 mi ESE 5.8 mph - N/A Rain Light Rain
6:43 PM 53.6 °F 51.8 °F 94% 30.18 in 9.0 mi NW 11.5 mph - 0.00 in   Overcast
6:53 PM 53.1 °F 52.0 °F 96% 30.19 in 10.0 mi NW 8.1 mph - 0.00 in   Overcast
7:53 PM 52.0 °F 52.0 °F 100% 30.20 in 9.0 mi West 3.5 mph - N/A   Mostly Cloudy
8:45 PM 53.6 °F 51.8 °F 94% 30.21 in 9.0 mi NW 4.6 mph - N/A   Overcast
8:53 PM 53.1 °F 53.1 °F 100% 30.21 in 10.0 mi Calm Calm - N/A   Overcast
9:04 PM 51.8 °F 51.8 °F 100% 30.21 in 10.0 mi Calm Calm - N/A   Overcast
9:30 PM 51.8 °F 51.8 °F 100% 30.22 in 7.0 mi Calm Calm - N/A   Overcast
9:45 PM 51.8 °F 51.8 °F 100% 30.22 in 1.8 mi NW 3.5 mph - N/A   Overcast
9:53 PM 52.0 °F 52.0 °F 100% 30.22 in 0.5 mi Calm Calm - N/A Fog Fog
10:01 PM 51.8 °F 51.8 °F 100% 30.21 in 0.2 mi Calm Calm - N/A Fog Fog
10:53 PM 51.1 °F 51.1 °F 100% 30.23 in 0.2 mi Calm Calm - N/A Fog Fog
11:53 PM 51.1 °F 51.1 °F 100% 30.23 in 0.5 mi Calm Calm - N/A Fog Fog